Home   Weather   Grudziądz   Past weeks

Flag for Poland Past Weather in Grudziądz, Poland — Yesterday and Last 2 Weeks

Now
49 °F

Scattered clouds.


Feels Like: 49 °F
Forecast: 44 / 75 °F
Wind: 2 mph from Southwest

Location: Torun

Current Time: May 26, 2017 at 7:38:37 am

Latest Report: May 26, 2017 at 6:00 am


Visibility: 9 mi

Pressure: 30.05 "Hg

Humidity: 97%

Dew Point: 48 °F

Location of GrudziądzLocation

Past Weather in Grudziądz — Graph

°F

Grudziądz Temperature Yesterday

Maximum temperature yesterday: 67 °F (at 4:00 pm)
Minimum temperature yesterday: 49 °F (at 4:00 am)
Average temperature yesterday: 57 °F

High & Low Weather Summary for the Past Weeks

 TemperatureHumidityPressure
High80 °F (May 19, 4:00 pm)100% (May 25, 4:00 am)30.42 "Hg (May 25, 4:00 am)
Low39 °F (May 12, 5:00 am)26% (May 19, 3:00 pm)29.77 "Hg (May 12, 4:00 pm)
Average60 °F65%30.05 "Hg
* Reported May 11 6:00 am — May 26 6:00 am, Grudziądz. Weather by CustomWeather, © 2017

Note: Actual official high and low records may vary slightly from our data, if they occured in-between our weather recording intervals... More about our weather records

Advertising

Grudziądz Weather History for the Previous 24 Hours

Scroll right to see more
 ConditionsComfort  
Time TempWeatherWind HumidityBarometerVisibility
6:00 am
Fri, May 26
49 °FScattered clouds.2 mph97%30.05 "Hg9 mi
5:00 am44 °FFog.1 mph96%30.06 "Hg2 mi
4:00 am45 °FFog.1 mph96%30.06 "Hg2 mi
3:00 am46 °FPassing clouds.1 mph94%30.06 "Hg7 mi
2:00 am47 °FPassing clouds.1 mph92%30.07 "Hg10 mi
1:00 am47 °FPassing clouds.1 mph90%30.09 "Hg13 mi
12:00 am49 °FPassing clouds.1 mph87%30.09 "Hg17 mi
11:00 pm
Thu, May 25
51 °FPassing clouds.1 mph81%30.08 "Hg19 mi
10:00 pm54 °FPassing clouds.1 mph74%30.07 "Hg19 mi
9:00 pm58 °FFog.1 mph62%30.06 "Hg5 mi
8:00 pm62 °FPartly sunny.3 mph53%30.05 "Hg25 mi
7:00 pm64 °FOvercast.2 mph55%30.05 "Hg19 mi
6:00 pm64 °FPartly sunny.2 mph53%30.06 "Hg22 mi
5:00 pm64 °FPartly sunny.3 mph55%30.06 "Hg17 mi
4:00 pm67 °FPartly sunny.5 mph50%30.06 "Hg14 mi
3:00 pm65 °FOvercast.3 mph55%30.06 "Hg19 mi
2:00 pm66 °FPartly sunny.3 mph51%30.06 "Hg19 mi
1:00 pm65 °FPartly sunny.2 mph54%30.07 "Hg19 mi
12:00 pm64 °FPartly sunny.2 mph56%30.08 "Hg22 mi
11:00 am62 °FPartly sunny.2 mph59%30.08 "Hg19 mi
10:00 am60 °FScattered clouds.2 mph65%30.08 "Hg19 mi
9:00 am57 °FScattered clouds.2 mph75%30.08 "Hg14 mi
8:00 am54 °FScattered clouds.1 mph81%30.08 "Hg9 mi
7:00 am51 °FScattered clouds.2 mph87%30.07 "Hg6 mi
Weather by CustomWeather, © 2017

See weather overviewHow to use our weather pages